sat.trackr.live / text

‹ back to catalog

HJS-7C

NORAD 65619 · 2025-209C

PAYLOAD ACTIVE UNKNOWN

§ Identity

Operator
Country
PRC
Launch date
2025-09-16
Launch site
JSC
Launch vehicle
Mass (kg)
RCS (m²)

External: N2YO · Heavens-Above · Gunter

§ Orbital elements

Epoch: 2026-05-25T04:48:41.594688Z

Period
107.35 min
Inclination
49.9995°
Eccentricity
0.0002305
Mean motion
13.41459358 rev/d
Perigee alt
1,102.1 km
Apogee alt
1,105.6 km
Semi-major
7,482.0 km
B*
1.5062e-4
RAAN
82.8220°
Arg perigee
38.6015°
Mean anomaly
321.5027°
Rev number
3,455

§ Raw data

HJS-7C1 65619U 25209C   26145.20048142 -.00000044  00000+0  15062-3 0  99992 65619  49.9995  82.8220 0002305  38.6015 321.5027 13.41459358 34559

JSON: /api/v1/satellites/65619 · /tle

For live sub-satellite position, see the globe view (requires WebGL).

§ Visibility from observer

Set your observer location to see the next 7 days of passes ≥ 10°. The values pass through the URL so the page stays shareable.

No JS? Fill the form by hand. The geolocation button needs JavaScript.